| time (UTC) | temp F | wind direction | speed knots | gust knots | rain 1hr in | rain 24hr in | rain mn in | humidity % | barometer mb |
| 20260508053820 | 49 | 0.0 | 0.0 | 0.00 | 0.00 | 0.00 | 92 | 1004.8 | |
| 20260508052828 | 49 | 74 | 0.0 | 1.7 | 0.00 | 0.00 | 0.00 | 92 | 1004.5 |
| 20260508051828 | 49 | 0.0 | 0.0 | 0.00 | 0.00 | 0.00 | 92 | 1004.5 | |
| 20260508050847 | 49 | 105 | 0.0 | 1.7 | 0.00 | 0.00 | 0.00 | 92 | 1004.5 |
| 20260508045821 | 49 | 0.0 | 0.0 | 0.00 | 0.00 | 0.00 | 92 | 1004.5 | |
| 20260508044828 | 49 | 0.0 | 0.0 | 0.00 | 0.00 | 0.00 | 91 | 1004.5 | |
| 20260508043828 | 49 | 0.0 | 0.0 | 0.00 | 0.00 | 0.00 | 91 | 1004.3 | |
| 20260508042827 | 49 | 0.0 | 0.0 | 0.00 | 0.00 | 0.00 | 91 | 1004.1 | |
| 20260508041941 | 49 | 0.0 | 0.0 | 0.00 | 0.00 | 0.00 | 90 | 1004.1 | |
| 20260508040908 | 49 | 0.0 | 0.0 | 0.00 | 0.00 | 0.00 | 89 | 1004.1 | |
| 20260508035828 | 49 | 0.0 | 0.0 | 0.00 | 0.00 | 0.00 | 89 | 1004.1 | |
| 20260508034848 | 49 | 0.0 | 0.0 | 0.00 | 0.00 | 0.00 | 88 | 1004.1 | |
| 20260508033820 | 50 | 0.0 | 0.0 | 0.00 | 0.00 | 0.00 | 87 | 1004.1 | |
| 20260508032828 | 50 | 0.0 | 0.0 | 0.00 | 0.00 | 0.00 | 87 | 1004.1 | |
| 20260508031828 | 50 | 0.0 | 0.0 | 0.00 | 0.00 | 0.00 | 87 | 1004.1 | |
| 20260508030827 | 50 | 0.0 | 0.0 | 0.00 | 0.00 | 0.00 | 87 | 1004.2 | |
| 20260508025820 | 50 | 0.0 | 0.0 | 0.00 | 0.00 | 0.00 | 86 | 1004.2 | |
| 20260508024828 | 50 | 0.0 | 0.0 | 0.00 | 0.00 | 0.00 | 86 | 1004.2 | |
| 20260508023828 | 50 | 80 | 0.0 | 1.7 | 0.00 | 0.00 | 0.00 | 86 | 1004.2 |
| 20260508022827 | 50 | 120 | 0.0 | 1.7 | 0.00 | 0.00 | 0.00 | 85 | 1004.2 |
| 20260508021822 | 50 | 0.0 | 0.0 | 0.00 | 0.00 | 0.00 | 85 | 1004.2 | |
| 20260508020828 | 50 | 0.0 | 0.0 | 0.00 | 0.00 | 0.00 | 85 | 1004.2 | |
| 20260508015828 | 51 | 0.0 | 0.0 | 0.00 | 0.00 | 0.00 | 84 | 1004.2 | |
| 20260508014827 | 51 | 0.0 | 0.0 | 0.00 | 0.00 | 0.00 | 84 | 1004.1 | |
| 20260508013820 | 51 | 0.0 | 0.0 | 0.00 | 0.00 | 0.00 | 84 | 1004.2 | |
| 20260508012828 | 51 | 0.0 | 0.0 | 0.00 | 0.00 | 0.00 | 84 | 1004.2 | |
| 20260508011828 | 51 | 0.0 | 0.0 | 0.00 | 0.00 | 0.00 | 84 | 1004.2 | |
| 20260508010829 | 51 | 118 | 1.7 | 1.7 | 0.00 | 0.00 | 0.00 | 83 | 1004.1 |
| 20260508005819 | 51 | 107 | 1.7 | 4.3 | 0.00 | 0.00 | 0.00 | 83 | 1004.1 |
| 20260508004828 | 51 | 112 | 0.9 | 1.7 | 0.00 | 0.00 | 0.00 | 82 | 1004.1 |
| 20260508003828 | 51 | 144 | 0.9 | 1.7 | 0.00 | 0.00 | 0.00 | 82 | 1004.1 |
| 20260508002827 | 52 | 120 | 1.7 | 4.3 | 0.00 | 0.00 | 0.00 | 81 | 1004.1 |
| 20260508001819 | 52 | 98 | 2.6 | 4.3 | 0.00 | 0.00 | 0.00 | 81 | 1004.1 |
| 20260508000848 | 52 | 87 | 0.9 | 4.3 | 0.00 | 0.00 | 0.00 | 80 | 1004.1 |
| 20260507235829 | 52 | 90 | 1.7 | 1.7 | 0.00 | 0.00 | 0.00 | 80 | 1004.1 |
| 20260507234827 | 52 | 131 | 0.9 | 4.3 | 0.00 | 0.00 | 0.00 | 79 | 1004.1 |
| 20260507233859 | 52 | 99 | 0.0 | 1.7 | 0.00 | 0.00 | 0.00 | 79 | 1004.1 |
| 20260507232828 | 52 | 128 | 1.7 | 4.3 | 0.00 | 0.00 | 0.00 | 78 | 1004.1 |
| 20260507231828 | 52 | 74 | 0.9 | 4.3 | 0.00 | 0.00 | 0.00 | 78 | 1004.3 |
| 20260507230827 | 53 | 107 | 0.9 | 1.7 | 0.00 | 0.00 | 0.00 | 77 | 1004.1 |
| 20260507225820 | 53 | 117 | 0.9 | 1.7 | 0.00 | 0.00 | 0.00 | 77 | 1004.1 |
| 20260507224828 | 53 | 110 | 0.0 | 1.7 | 0.00 | 0.00 | 0.00 | 76 | 1004.1 |
| 20260507223828 | 53 | 104 | 0.9 | 1.7 | 0.00 | 0.00 | 0.00 | 75 | 1004.2 |
| 20260507222828 | 53 | 117 | 1.7 | 4.3 | 0.00 | 0.00 | 0.00 | 75 | 1004.3 |
| 20260507221900 | 53 | 140 | 4.3 | 7.0 | 0.00 | 0.00 | 0.00 | 74 | 1004.2 |
| 20260507220828 | 53 | 104 | 0.9 | 1.7 | 0.00 | 0.00 | 0.00 | 74 | 1004.5 |
| 20260507215828 | 53 | 208 | 1.7 | 4.3 | 0.00 | 0.00 | 0.00 | 73 | 1004.5 |
| 20260507214853 | 53 | 123 | 1.7 | 4.3 | 0.00 | 0.00 | 0.00 | 73 | 1004.5 |
| 20260507213819 | 53 | 0.0 | 0.0 | 0.00 | 0.00 | 0.00 | 74 | 1004.1 | |
| 20260507212828 | 53 | 0.0 | 0.0 | 0.00 | 0.00 | 0.00 | 74 | 1004.1 | |
| 20260507211828 | 54 | 0.0 | 0.0 | 0.00 | 0.00 | 0.00 | 74 | 1004.2 | |
| 20260507210827 | 54 | 68 | 0.9 | 1.7 | 0.00 | 0.00 | 0.00 | 74 | 1004.1 |
| 20260507205819 | 54 | 130 | 2.6 | 4.3 | 0.00 | 0.00 | 0.00 | 74 | 1004.1 |
| 20260507204828 | 54 | 0.0 | 0.0 | 0.00 | 0.00 | 0.00 | 75 | 1004.1 | |
| 20260507203828 | 54 | 69 | 0.9 | 1.7 | 0.00 | 0.00 | 0.00 | 75 | 1004.1 |
| 20260507202827 | 54 | 73 | 0.0 | 1.7 | 0.00 | 0.00 | 0.00 | 76 | 1004.1 |
| 20260507201840 | 54 | 88 | 0.9 | 1.7 | 0.00 | 0.00 | 0.00 | 75 | 1004.1 |
| 20260507200828 | 55 | 49 | 0.0 | 1.7 | 0.00 | 0.00 | 0.00 | 74 | 1003.8 |
| 20260507195828 | 55 | 0.0 | 0.0 | 0.00 | 0.00 | 0.00 | 73 | 1003.8 | |
| 20260507194827 | 55 | 81 | 0.9 | 1.7 | 0.00 | 0.00 | 0.00 | 73 | 1003.6 |
| 20260507193819 | 56 | 0.0 | 0.0 | 0.00 | 0.00 | 0.00 | 71 | 1003.8 | |
| 20260507192829 | 56 | 103 | 0.0 | 1.7 | 0.00 | 0.00 | 0.00 | 70 | 1003.6 |
| 20260507191828 | 56 | 92 | 0.0 | 1.7 | 0.00 | 0.00 | 0.00 | 69 | 1003.4 |
| 20260507190827 | 57 | 85 | 0.0 | 1.7 | 0.00 | 0.00 | 0.00 | 68 | 1003.4 |
| 20260507185819 | 57 | 123 | 0.9 | 4.3 | 0.00 | 0.00 | 0.00 | 67 | 1003.4 |
| 20260507184828 | 57 | 133 | 1.7 | 4.3 | 0.00 | 0.00 | 0.00 | 65 | 1003.2 |
| 20260507183828 | 58 | 90 | 0.9 | 1.7 | 0.00 | 0.00 | 0.00 | 64 | 1003.1 |
| 20260507182847 | 58 | 115 | 0.9 | 7.0 | 0.00 | 0.00 | 0.00 | 62 | 1003.0 |
| 20260507181819 | 59 | 109 | 0.9 | 1.7 | 0.00 | 0.00 | 0.00 | 59 | 1003.0 |
| 20260507180828 | 59 | 112 | 0.9 | 1.7 | 0.00 | 0.00 | 0.00 | 59 | 1003.0 |
| 20260507175828 | 59 | 111 | 1.7 | 7.0 | 0.00 | 0.00 | 0.00 | 58 | 1003.0 |
| 20260507174827 | 59 | 105 | 2.6 | 4.3 | 0.00 | 0.00 | 0.00 | 55 | 1003.0 |
| 20260507173819 | 60 | 106 | 0.0 | 1.7 | 0.00 | 0.00 | 0.00 | 55 | 1003.0 |
| 20260507172828 | 60 | 67 | 0.0 | 1.7 | 0.00 | 0.00 | 0.00 | 54 | 1002.9 |
| 20260507171827 | 60 | 143 | 2.6 | 7.0 | 0.00 | 0.00 | 0.00 | 53 | 1002.9 |
| 20260507170827 | 60 | 139 | 2.6 | 7.0 | 0.00 | 0.00 | 0.00 | 54 | 1002.9 |
| 20260507165819 | 60 | 37 | 1.7 | 4.3 | 0.00 | 0.00 | 0.00 | 54 | 1002.9 |
| 20260507164828 | 60 | 108 | 1.7 | 4.3 | 0.00 | 0.00 | 0.00 | 56 | 1002.9 |
| 20260507163827 | 60 | 256 | 1.7 | 7.0 | 0.00 | 0.00 | 0.00 | 55 | 1002.9 |
| 20260507162827 | 60 | 93 | 0.9 | 1.7 | 0.00 | 0.00 | 0.00 | 56 | 1002.9 |
| 20260507161819 | 60 | 126 | 0.9 | 1.7 | 0.00 | 0.00 | 0.00 | 58 | 1002.9 |
| 20260507160852 | 60 | 0.0 | 0.0 | 0.00 | 0.00 | 0.00 | 57 | 1003.3 | |
| 20260507155828 | 60 | 31 | 0.9 | 1.7 | 0.00 | 0.00 | 0.00 | 58 | 1003.3 |
| 20260507154827 | 60 | 79 | 0.9 | 1.7 | 0.00 | 0.00 | 0.00 | 57 | 1003.3 |
| 20260507153819 | 60 | 0.0 | 0.0 | 0.00 | 0.00 | 0.00 | 55 | 1003.3 | |
| 20260507152848 | 60 | 138 | 0.9 | 4.3 | 0.00 | 0.00 | 0.00 | 54 | 1003.3 |
| 20260507151828 | 60 | 0.0 | 0.0 | 0.00 | 0.00 | 0.00 | 56 | 1003.3 | |
| 20260507150827 | 60 | 129 | 0.9 | 4.3 | 0.00 | 0.00 | 0.00 | 56 | 1003.1 |
| 20260507145819 | 60 | 68 | 0.9 | 4.3 | 0.00 | 0.00 | 0.00 | 55 | 1003.3 |
| 20260507144827 | 61 | 118 | 0.9 | 4.3 | 0.00 | 0.00 | 0.00 | 54 | 1003.3 |
| 20260507143847 | 61 | 0.0 | 0.0 | 0.00 | 0.00 | 0.00 | 53 | 1003.3 | |
| 20260507142827 | 61 | 39 | 0.9 | 4.3 | 0.00 | 0.00 | 0.00 | 53 | 1003.4 |
| 20260507141839 | 62 | 0.0 | 0.0 | 0.00 | 0.00 | 0.00 | 53 | 1003.7 | |
| 20260507140848 | 62 | 78 | 2.6 | 4.3 | 0.00 | 0.00 | 0.00 | 53 | 1003.5 |
| 20260507135828 | 62 | 96 | 0.9 | 4.3 | 0.00 | 0.00 | 0.00 | 51 | 1003.7 |
| 20260507134827 | 61 | 122 | 0.9 | 4.3 | 0.00 | 0.00 | 0.00 | 54 | 1003.7 |
| 20260507133820 | 61 | 102 | 1.7 | 4.3 | 0.00 | 0.00 | 0.00 | 54 | 1003.7 |
| 20260507132828 | 61 | 88 | 1.7 | 4.3 | 0.00 | 0.00 | 0.00 | 56 | 1003.8 |
| 20260507131828 | 60 | 55 | 0.9 | 1.7 | 0.00 | 0.00 | 0.00 | 57 | 1003.6 |
| 20260507130827 | 60 | 122 | 3.5 | 7.0 | 0.00 | 0.00 | 0.00 | 57 | 1003.8 |
| 20260507125819 | 59 | 113 | 0.0 | 1.7 | 0.00 | 0.00 | 0.00 | 58 | 1004.0 |
| 20260507124827 | 59 | 66 | 0.0 | 1.7 | 0.00 | 0.00 | 0.00 | 60 | 1004.0 |
| 20260507123827 | 58 | 0.0 | 0.0 | 0.00 | 0.00 | 0.00 | 60 | 1004.0 | |
| 20260507122827 | 57 | 0.0 | 0.0 | 0.00 | 0.00 | 0.00 | 61 | 1003.9 | |
| 20260507121819 | 57 | 131 | 0.9 | 4.3 | 0.00 | 0.00 | 0.00 | 64 | 1003.9 |
| 20260507120827 | 57 | 0.0 | 0.0 | 0.00 | 0.00 | 0.00 | 65 | 1004.1 | |
| 20260507115827 | 57 | 0.0 | 0.0 | 0.00 | 0.00 | 0.00 | 64 | 1004.3 | |
| 20260507114827 | 57 | 0.0 | 0.0 | 0.00 | 0.00 | 0.00 | 64 | 1004.3 | |
| 20260507113820 | 57 | 0.0 | 0.0 | 0.00 | 0.00 | 0.00 | 63 | 1004.3 | |
| 20260507112828 | 57 | 0.0 | 0.0 | 0.00 | 0.00 | 0.00 | 65 | 1004.3 | |
| 20260507111828 | 57 | 5 | 0.9 | 1.7 | 0.00 | 0.00 | 0.00 | 65 | 1004.3 |
| 20260507110827 | 57 | 126 | 0.9 | 4.3 | 0.00 | 0.00 | 0.00 | 63 | 1004.3 |
| 20260507105848 | 57 | 0.0 | 0.0 | 0.00 | 0.00 | 0.00 | 63 | 1004.7 | |
| 20260507104827 | 56 | 42 | 0.9 | 1.7 | 0.00 | 0.00 | 0.00 | 64 | 1004.7 |
| 20260507103839 | 56 | 135 | 0.9 | 4.3 | 0.00 | 0.00 | 0.00 | 66 | 1004.7 |
| 20260507102827 | 56 | 59 | 0.9 | 1.7 | 0.00 | 0.00 | 0.00 | 66 | 1004.7 |
| 20260507101827 | 57 | 91 | 0.9 | 1.7 | 0.00 | 0.00 | 0.00 | 67 | 1004.7 |
| 20260507100827 | 57 | 114 | 0.9 | 1.7 | 0.00 | 0.00 | 0.00 | 66 | 1004.7 |
| 20260507095819 | 57 | 73 | 0.9 | 1.7 | 0.00 | 0.00 | 0.00 | 65 | 1004.7 |
| 20260507094827 | 57 | 131 | 2.6 | 4.3 | 0.00 | 0.00 | 0.00 | 65 | 1004.7 |
| 20260507093827 | 57 | 0.0 | 0.0 | 0.00 | 0.00 | 0.00 | 65 | 1004.7 | |
| 20260507092827 | 57 | 95 | 1.7 | 4.3 | 0.00 | 0.00 | 0.00 | 66 | 1004.7 |
| 20260507091819 | 56 | 182 | 0.9 | 4.3 | 0.00 | 0.00 | 0.00 | 67 | 1004.7 |
| 20260507090827 | 56 | 33 | 0.9 | 1.7 | 0.00 | 0.00 | 0.00 | 68 | 1004.7 |
| 20260507085827 | 55 | 0.0 | 0.0 | 0.00 | 0.00 | 0.00 | 69 | 1004.7 | |
| 20260507084827 | 55 | 64 | 0.0 | 1.7 | 0.00 | 0.00 | 0.00 | 71 | 1004.7 |
| 20260507083839 | 55 | 134 | 2.6 | 4.3 | 0.00 | 0.00 | 0.00 | 71 | 1004.7 |
| 20260507082827 | 54 | 0.0 | 0.0 | 0.00 | 0.00 | 0.00 | 72 | 1004.7 | |
| 20260507081827 | 54 | 0.0 | 0.0 | 0.00 | 0.00 | 0.00 | 71 | 1004.7 | |
| 20260507080827 | 54 | 62 | 0.9 | 4.3 | 0.00 | 0.00 | 0.00 | 74 | 1004.7 |
| 20260507075819 | 54 | 0.0 | 0.0 | 0.00 | 0.00 | 0.00 | 73 | 1004.7 | |
| 20260507074828 | 54 | 67 | 0.9 | 1.7 | 0.00 | 0.00 | 0.00 | 73 | 1004.7 |
| 20260507073848 | 53 | 116 | 0.9 | 1.7 | 0.00 | 0.00 | 0.00 | 70 | 1004.7 |
| 20260507072937 | 52 | 113 | 0.0 | 1.7 | 0.00 | 0.00 | 0.00 | 72 | 1004.8 |
| 20260507071819 | 51 | 355 | 0.0 | 1.7 | 0.00 | 0.00 | 0.00 | 74 | 1005.0 |
| 20260507070827 | 49 | 94 | 0.9 | 1.7 | 0.00 | 0.00 | 0.00 | 75 | 1004.8 |
| 20260507065828 | 48 | 0.0 | 0.0 | 0.00 | 0.00 | 0.00 | 77 | 1004.8 | |
| 20260507064827 | 47 | 0.0 | 0.0 | 0.00 | 0.00 | 0.00 | 79 | 1004.6 | |
| 20260507063819 | 46 | 0.0 | 0.0 | 0.00 | 0.00 | 0.00 | 82 | 1004.6 | |
| 20260507062827 | 45 | 0.0 | 0.0 | 0.00 | 0.00 | 0.00 | 82 | 1004.8 | |
| 20260507061828 | 43 | 0.0 | 0.0 | 0.00 | 0.00 | 0.00 | 87 | 1004.6 | |
| 20260507060847 | 40 | 0.0 | 0.0 | 0.00 | 0.00 | 0.00 | 93 | 1004.6 | |
| 20260507055839 | 39 | 0.0 | 0.0 | 0.00 | 0.00 | 0.00 | 95 | 1004.6 | |
| 20260507054847 | 38 | 0.0 | 0.0 | 0.00 | 0.00 | 0.00 | 95 | 1004.5 |